Content
SEND FEEDBACK

Daily
Averages
Monthly
Summary
China

TAIYUAN, CHINA


Home > Asia > China
Elevation: 778 meters     Latitude: 37 47N     Longitude: 112 33E

WEATHER
 
SELECT A DAY
Number of Records: 227,125;   Date Range: 7/1/96 - 7/20/14
 
SHARE

PRINT THIS DATA

[ ← Previous Day ]
WEATHER ALMANAC - 31 JANUARY, 2013
[ Next Day → ]
[ °F ]   °C
Weather ElementAverageHighLow
Temperature2.9 °C9 °C (2:30 pm)-3 °C (6:30 am)
Dewpoint-2.8 °C0 °C (5:00 pm)-6 °C (6:30 am)
Humidity66.9 %87 % (8:00 am)39 % (2:00 pm)
Barometer1017.3 hPa1023 hPa (11:00 pm)1015.2 hPa (4:00 am)
Wind Speed6.6 km/h14.3 km/h (3:00 am)
Weather ElementAverage
Visibility3.2 km
Wind DirectionSSE (149.8 °)

Weather ElementTotal
Precipitation---
Heating Degree Days15.3 (Base 18.3)
Averaged from 54 records on 31 January, 2013
WEATHER CONDITIONS BREAKOUT
WIND DIRECTION BREAKOUT
WEATHER BY HOUR - 31 JANUARY, 2013
[ °F ]   °C
Local TimeTemperatureDewpointHumidityBarometerVisibilityWind DirectionWind SpeedGust SpeedPrecipitationEventsConditions
12:30 AM0 °C-5 °C69 %1017.3 hPa5 kmENE (70°)7.2 km/hHaze
1:00 AM2 °C-2 °C75 %1017.3 hPa4 kmEast (80°)7.2 km/hHaze
1:30 AM-1 °C-4 °C80 %1017.3 hPa4 kmEast (80°)7.2 km/hHaze
2:00 AM-1.1 °C-3.9 °C74 %1019 hPa11.3 kmENE (70°)7.2 km/hClear
2:00 AM0 °C-4 °C75 %1017.3 hPa4 kmEast (80°)10.8 km/hHaze
2:30 AM1 °C-4 °C70 %1016.3 hPa4 kmENE (70°)10.8 km/hHaze
3:00 AM2 °C-3 °C70 %1016.3 hPa4 kmENE (70°)14.3 km/hHaze
3:30 AM2 °C-3 °C70 %1016.3 hPa4 kmEast (80°)10.8 km/hHaze
4:00 AM0 °C-4 °C75 %1015.2 hPa3.1 kmEast (90°)10.8 km/hHaze
4:30 AM0 °C-4 °C75 %1015.2 hPa3.1 kmEast (90°)10.8 km/hHaze
5:00 AM-2.8 °C-5.6 °C72 %1018.3 hPa11.3 kmNNW (340°)7.2 km/hClear
5:00 AM-1 °C-4 °C80 %1015.2 hPa3.1 kmEast (100°)7.2 km/hHaze
5:30 AM-1 °C-5 °C75 %1015.2 hPa3.1 kmEast (100°)10.8 km/hHaze
6:00 AM-2 °C-5 °C80 %1016.3 hPa3.1 kmWest (260°)7.2 km/hMist
6:30 AM-3 °C-6 °C80 %1016.3 hPa2.6 kmCalmMist
7:00 AM-2 °C-5 °C80 %1016.3 hPa2.6 kmNorth (350°)3.5 km/hMist
7:30 AM-2 °C-5 °C80 %1016.3 hPa1.9 kmEast (90°)7.2 km/hMist
8:00 AM0 °C-2 °C87 %1017.3 hPa1.9 kmENE (60°)7.2 km/hScattered Clouds
8:30 AM2 °C-1 °C81 %1017.3 hPa1.9 kmEast (90°)3.5 km/hMist
9:00 AM2 °C-1 °C81 %1017.3 hPa1.9 kmEast (90°)3.5 km/hMist
9:30 AM3 °C-1 °C75 %1017.3 hPa1.6 kmSouth (190°)3.5 km/hMist
10:00 AM3 °C-2 °C70 %1017.3 hPa1.6 kmSSW (200°)3.5 km/hMist
10:30 AM4 °C-2 °C65 %1017.3 hPa1.8 kmSSW (210°)3.5 km/hHaze
11:00 AM3.3 °C-1.7 °C59 %1021.7 hPa6.4 kmSW (220°)3.5 km/hMist
11:00 AM4 °C-3 °C61 %1017.3 hPa1.8 kmSouth (190°)3.5 km/hHaze
11:30 AM5 °C-3 °C57 %1017.3 hPa1.9 kmSouth (180°)7.2 km/hHaze
12:00 PM6 °C-2 °C57 %1017.3 hPa1.9 kmSouth (170°)7.2 km/hHaze
12:30 PM7 °C-2 °C53 %1017.3 hPa1.9 kmSouth (170°)7.2 km/hHaze
1:00 PM7 °C-2 °C53 %1016.3 hPa1.9 kmSouth (170°)10.8 km/hHaze
1:30 PM8 °C-2 °C50 %1015.2 hPa1.9 kmSSE (160°)10.8 km/hHaze
2:00 PM8.3 °C-1.1 °C39 %1018.3 hPa8 kmSSW (200°)10.8 km/hHaze
2:00 PM8 °C-2 °C50 %1015.2 hPa1.9 kmSouth (170°)10.8 km/hHaze
2:30 PM9 °C-2 °C46 %1015.2 hPa1.9 kmSouth (170°)7.2 km/hHaze
3:00 PM9 °C-2 °C46 %1015.2 hPa2.6 kmSouth (190°)7.2 km/hHaze
3:30 PM9 °C-2 °C46 %1015.2 hPa2.6 kmSSW (210°)7.2 km/hHaze
4:00 PM9 °C-2 °C46 %1015.2 hPa2.6 kmSW (220°)7.2 km/hHaze
4:30 PM9 °C-2 °C46 %1015.2 hPa2.6 kmSouth (190°)7.2 km/hHaze
5:00 PM8.3 °C0 °C44 %1019.3 hPa8 kmWSW (250°)3.5 km/hHaze
5:00 PM9 °C-2 °C46 %1016.3 hPa1.9 kmSSW (210°)3.5 km/hHaze
5:30 PM7 °C-2 °C53 %1016.3 hPa1.9 kmSouth (180°)3.5 km/hHaze
6:00 PM5 °C-2 °C61 %1016.3 hPa1.9 kmSE (140°)3.5 km/hHaze
6:30 PM4 °C-3 °C61 %1016.3 hPa2.3 kmESE (120°)7.2 km/hHaze
7:00 PM5 °C-1 °C65 %1016.3 hPa1.8 kmEast (90°)3.5 km/hHaze
7:30 PM5 °C-2 °C61 %1017.3 hPa1.6 kmEast (100°)10.8 km/hHaze
8:00 PM2.2 °C-0.6 °C74 %1021.3 hPa8 kmSSW (200°)7.2 km/hMist
8:00 PM4 °C-2 °C65 %1017.3 hPa1.6 kmSSE (150°)3.5 km/hHaze
8:30 PM2 °C-3 °C70 %1017.3 hPa1.4 kmSSE (150°)3.5 km/hHaze
9:00 PM1 °C-3 °C75 %1017.9 hPa1.4 kmESE (120°)3.5 km/hMist
9:30 PM1 °C-3 °C75 %1017.9 hPa1.1 kmSouth (170°)7.2 km/hMist
10:00 PM1 °C-2 °C81 %1019 hPa1.1 kmSE (130°)3.5 km/hMist
10:30 PM-2 °C-5 °C80 %1019 hPa1.1 kmNNW (330°)3.5 km/hMist
11:00 PM0.6 °C-1.1 °C82 %1023 hPa8 kmENE (70°)3.5 km/hMist
11:00 PM-3 °C-5 °C86 %1019 hPa1.1 kmEast (100°)3.5 km/hMist
11:30 PM-2 °C-4 °C86 %1019 hPa1.1 kmESE (110°)7.2 km/hMist
Hourly data recorded from ZBYN, located 0 kilometers away from Taiyuan, China







STORIES FROM OUR PARTNERS